STARLINK-2538, 48300

Orbit data source: Space-Track

STARLINK-2538, 48300 is a payload satellite owned by SpaceX/Seattle (US) in LEO that was launched on Thu, 29 Apr 2021 UTC via an FALCON 9 launch vehicle from the Air Force Eastern Test Range (AFETR). Payload-class satellites include a variety of spacecraft equipped with specific instruments for various scientific and technological missions. These include communications satellites like Starlink; space stations such as the ISS; scientific satellites like the Hubble; Earth observation satellites from companies like Planet Labs, Umbra, and HawkEye 360; GPS; miniature CubeSats for education and research; and military/defense satellites.

Loading next visibility...
Identifier
48300, 2021-036AA
Orbit
LEO
Country
Flag of USUS
Related business
Manufacturer
SpaceX/Seattle
Mission
Operational Commercial Communications
Bus & Motor
STARLINK, Unknown motor
Mass
260 kg wet, ~248 kg dry
Launch date (UTC)
2021-04-29 (5 years ago)
Launch vehicle
FALCON 9
Launch site
Air Force Eastern Test Range (AFETR)
Object type
Payload
Rocket body
Debris
Shape & HBR
Box + 1 Pan, 10.1 m
Radar Cross Section
13.562 m², Large (>1 m²)

Expand to show TLE details & history
Last TLE update: 12 hours ago

TLE from 12 hours ago
0 STARLINK-2538
1 48300U 21036AA  25304.28747214 -.00000256  00000-0  17370-5 0  9993
2 48300  53.0551 312.5322 0001289  91.3065 268.8072 15.06407359248678
Epoch: 2025-10-31T06:53Z
TLE epoch observation values (Epoch: 2025-10-31T06:53:57.592Z)
Latitude
-0.00002°
Longitude
169.20815°
Altitude
548.087 km
Speed
7.589 km/s
True Right ascension
20h 50m 07s
True Declination
0° 00' 00"
Sunlit
Object was in daylight at epoch
Visualization orbit readout
Latitude
Unknown
Longitude
Unknown
Altitude
Unknown
Speed
Unknown
Apparent Right ascension
Unknown
Apparent Declination
Unknown
Sunlit
N/A
Visualization observer readout
Local Sidereal Time
14:21:07
Azimuth
Unknown
Elevation
Unknown
Doppler factor
Unknown
Orbital elements
Apogee altitude
548.352 km
Perigee altitude
546.567 km
Semi-major axis
6,925.597 km
Eccentricity
0.00013
Inclination
53.0551°
RAAN
312.5322°
Arg. of periapsis
91.3065°
True anomaly
268.79243°
Mean anomaly
268.8072°
Eccentric anomaly
268.79982°
Mean motion
3.7658 °/min
Orbital period
95.6 mins
BSTAR
0.000001737
Loading maneuver chart data...
Computing Atmospheric mass density...
Loading historical data...
Loading historical data...
Loading historical data...
Loading historical data...
Loading historical data...
Loading historical data...
Loading historical data...

Documentation

Showing up to 5 results
|